Bakersfield, CA

1:52 PM PDT on April 28, 2017 (GMT -0700)
Meadows

Weather History for KBFL - February, 2014

Change the Weather History Date:

Friday, February 7, 2014

  Actual Average Record
Temperature  
Mean Temperature 54 °F 51 °F  
Max Temperature 61 °F 61 °F 81 °F (1987)
Min Temperature 47 °F 41 °F 26 °F (1989)
Degree Days  
Heating Degree Days 11    
Month to date heating degree days 113  
Since 1 July heating degree days 1220  
Cooling Degree Days 0    
Month to date cooling degree days 0  
Year to date cooling degree days 9  
Growing Degree Days 4 (Base 50)    
Moisture  
Dew Point 45 °F    
Average Humidity 73    
Maximum Humidity 100    
Minimum Humidity 46    
Precipitation  
Precipitation 0.00 in 0.04 in 0.73 in (2009)
Month to date precipitation 0.04 0.31  
Year to date precipitation 0.16 1.47  
Since 1 July precipitation 1.23  
Snow  
Snow 0.00 in - - ()
Month to date snowfall 0.0  
Since 1 July snowfall 0.0  
Snow Depth 0.00 in    
Sea Level Pressure  
Sea Level Pressure 30.12 in    
Wind  
Wind Speed 4 mph (WSW)    
Max Wind Speed 16 mph    
Max Gust Speed 20 mph    
Visibility 5 miles    
Events Fog    
T = Trace of Precipitation, MM = Missing Value Source: NWS Daily Summary

Daily Weather History Graph

Daily Weather History Graph

Search for Another Location

Airport or City:

Trip Planner

Search our weather history database for the weather conditions in past years. The results will help you decide how hot, cold, wet, or windy it might be!

Date:

Astronomy

Feb. 07, 2014 Rise Set
Actual Time 6:50 AM PST 5:30 PM PST
Civil Twilight 6:24 AM PST 5:56 PM PST
Nautical Twilight 5:54 AM PST 6:27 PM PST
Astronomical Twilight 5:24 AM PST 6:56 PM PST
Moon 11:47 AM PST (2/7) 1:09 AM PST (2/7)
Length of Visible Light 11h 32m
Length of Day
10h 39m
First Quarter, 60% of the Moon is Illuminated
Feb 7
First Quarter
Feb 14
Full
Feb 22
Last Quarter
Mar 1
New
Mar 8
First Quarter

Hourly Weather History & Observations

Time (PST) Temp. Windchill Dew Point Humidity Pressure Visibility Wind Dir Wind Speed Gust Speed Precip Events Conditions
12:27 AM 50.0 °F - 48.0 °F 93% 30.07 in 8.0 mi NNW 5.8 mph - N/A   Overcast
12:54 AM 50.0 °F - 48.0 °F 93% 30.06 in 6.0 mi North 5.8 mph - N/A   Overcast
1:54 AM 51.1 °F - 48.0 °F 89% 30.05 in 7.0 mi Calm Calm - N/A   Overcast
2:40 AM 50.0 °F - 48.0 °F 93% 30.05 in 6.0 mi SSE 3.5 mph - N/A   Overcast
2:54 AM 50.0 °F - 48.0 °F 93% 30.06 in 5.0 mi SW 3.5 mph - N/A   Overcast
3:54 AM 48.0 °F - 46.0 °F 93% 30.07 in 4.0 mi West 3.5 mph - N/A   Overcast
4:42 AM 48.0 °F - 46.0 °F 93% 30.07 in 2.0 mi Calm Calm - N/A   Overcast
4:50 AM 48.2 °F - 46.4 °F 93% 30.08 in 1.2 mi Calm Calm - N/A   Overcast
4:54 AM 48.0 °F - 46.0 °F 93% 30.09 in 1.0 mi Calm Calm - N/A   Overcast
5:13 AM 48.0 °F - 46.0 °F 93% 30.10 in 0.8 mi NW 3.5 mph - N/A   Overcast
5:54 AM 48.0 °F - 46.0 °F 93% 30.12 in 0.5 mi Calm Calm - N/A Fog Fog
6:07 AM 48.0 °F - 46.0 °F 93% 30.12 in 0.2 mi West 3.5 mph - N/A Fog Fog
6:14 AM 48.0 °F - 46.0 °F 93% 30.13 in 0.5 mi West 4.6 mph - N/A   Mist
6:23 AM 48.0 °F - 46.9 °F 96% 30.13 in 0.2 mi WSW 3.5 mph - N/A Fog Fog
6:35 AM 48.0 °F - 46.0 °F 93% 30.14 in 0.2 mi West 3.5 mph - N/A Fog Fog
6:49 AM 46.4 °F 45.2 °F 46.4 °F 100% 30.14 in 0.2 mi WSW 3.5 mph - N/A Fog Fog
6:54 AM 46.9 °F - 46.0 °F 97% 30.14 in 0.2 mi WSW 4.6 mph - N/A Fog Fog
7:42 AM 46.9 °F - 46.0 °F 97% 30.14 in 0.5 mi SW 3.5 mph - N/A   Overcast
7:54 AM 46.9 °F - 46.0 °F 97% 30.15 in 0.2 mi SW 4.6 mph - N/A Fog Fog
8:22 AM 46.9 °F - 46.0 °F 97% 30.14 in 0.5 mi South 4.6 mph - N/A   Overcast
8:54 AM 48.0 °F - 46.0 °F 93% 30.14 in 0.8 mi South 5.8 mph - N/A   Overcast
9:13 AM 48.0 °F - 46.0 °F 93% 30.14 in 1.0 mi SSE 6.9 mph - N/A   Overcast
9:28 AM 48.0 °F - 46.9 °F 96% 30.14 in 2.0 mi SE 5.8 mph - N/A   Overcast
9:44 AM 48.9 °F - 46.9 °F 93% 30.14 in 3.0 mi SSE 8.1 mph - N/A   Overcast
9:54 AM 48.9 °F - 46.0 °F 90% 30.14 in 4.0 mi SSE 9.2 mph - N/A   Overcast
10:23 AM 51.1 °F - 46.0 °F 83% 30.15 in 5.0 mi SE 9.2 mph - N/A   Haze
10:54 AM 54.0 °F - 46.9 °F 77% 30.15 in 6.0 mi Variable 5.8 mph - N/A   Haze
11:05 AM 54.0 °F - 46.0 °F 75% 30.14 in 6.0 mi SSE 4.6 mph - N/A   Haze
11:54 AM 57.0 °F - 44.1 °F 62% 30.14 in 10.0 mi Calm Calm - N/A   Clear
12:54 PM 59.0 °F - 41.0 °F 51% 30.16 in 10.0 mi WNW 9.2 mph - N/A   Clear
1:54 PM 59.0 °F - 42.1 °F 53% 30.12 in 10.0 mi NNE 13.8 mph - N/A   Partly Cloudy
2:54 PM 60.1 °F - 41.0 °F 49% 30.11 in 10.0 mi Calm Calm - N/A   Scattered Clouds
3:54 PM 60.1 °F - 39.9 °F 47% 30.10 in 10.0 mi WNW 4.6 mph - N/A   Clear
4:54 PM 59.0 °F - 42.1 °F 53% 30.11 in 10.0 mi WNW 8.1 mph - N/A   Mostly Cloudy
5:54 PM 57.9 °F - 42.1 °F 56% 30.12 in 10.0 mi NW 3.5 mph - N/A   Mostly Cloudy
6:54 PM 57.9 °F - 42.1 °F 56% 30.14 in 10.0 mi North 4.6 mph - N/A   Overcast
7:54 PM 55.9 °F - 43.0 °F 62% 30.17 in 10.0 mi North 3.5 mph - N/A   Mostly Cloudy
8:54 PM 55.9 °F - 43.0 °F 62% 30.17 in 10.0 mi Calm Calm - N/A   Mostly Cloudy
9:54 PM 55.0 °F - 44.1 °F 67% 30.18 in 10.0 mi Calm Calm - N/A   Overcast
10:54 PM 50.0 °F - 42.1 °F 74% 30.17 in 10.0 mi Calm Calm - N/A   Clear
11:54 PM 46.9 °F - 39.9 °F 77% 30.18 in 10.0 mi East 3.5 mph - N/A   Clear